• In Deutschland
  • Länderverzeichnis
  • Für 7 Tage
  • Wassertemperatur
  • Satellitenkarten
  • Wetterkarte
  • Widgets
  • user-avatar
    Anmelden

    Stündliche Wetter Sölden

    Heute, 21 August, Montag

    Zeit Temperatur Niederschläge Wind Luftdruck Luftfeuchtigkeit
    00:00 +3°C° 0 mm 1 m/S 586 mmHg 81%
    01:00 +2°C° 0 mm 2 m/S 586 mmHg 85%
    02:00 +1°C° 0 mm 2 m/S 585 mmHg 85%
    03:00 +2°C° 0 mm 1 m/S 585 mmHg 84%
    04:00 +2°C° 0 mm 1 m/S 585 mmHg 84%
    05:00 +3°C° 0 mm 1 m/S 586 mmHg 78%
    06:00 +4°C° 0 mm 1 m/S 586 mmHg 72%
    07:00 +5°C° 0 mm 1 m/S 587 mmHg 67%
    08:00 +7°C° 0 mm 1 m/S 588 mmHg 57%
    09:00 +10°C° 0 mm 1 m/S 589 mmHg 46%
    10:00 +12°C° 0 mm 1 m/S 590 mmHg 36%
    11:00 +13°C° 0 mm 2 m/S 590 mmHg 36%
    12:00 +14°C° 0 mm 2 m/S 590 mmHg 36%
    13:00 +14°C° 0 mm 2 m/S 590 mmHg 36%
    14:00 +14°C° 0 mm 2 m/S 590 mmHg 39%
    15:00 +13°C° 0 mm 2 m/S 589 mmHg 42%
    16:00 +12°C° 0 mm 2 m/S 589 mmHg 45%
    17:00 +10°C° 0 mm 2 m/S 588 mmHg 53%
    18:00 +9°C° 0 mm 1 m/S 588 mmHg 61%
    19:00 +8°C° 0 mm 1 m/S 587 mmHg 69%
    20:00 +6°C° 0 mm 1 m/S 587 mmHg 73%
    21:00 +5°C° 0 mm 1 m/S 586 mmHg 77%
    22:00 +4°C° 0 mm 1 m/S 586 mmHg 81%
    23:00 +4°C° 0 mm 1 m/S 586 mmHg 82%

    Morgen, 22 August, Dienstag

    Zeit Temperatur Niederschläge Wind Luftdruck Luftfeuchtigkeit
    00:00 +3°C° 0 mm 1 m/S 586 mmHg 82%
    01:00 +3°C° 0 mm 1 m/S 586 mmHg 82%
    02:00 +3°C° 0 mm 1 m/S 585 mmHg 82%
    03:00 +3°C° 0 mm 1 m/S 585 mmHg 83%
    04:00 +3°C° 0 mm 1 m/S 585 mmHg 83%
    05:00 +4°C° 0 mm 1 m/S 586 mmHg 79%
    06:00 +5°C° 0 mm 1 m/S 586 mmHg 75%
    07:00 +7°C° 0 mm 1 m/S 587 mmHg 71%
    08:00 +9°C° 0 mm 1 m/S 588 mmHg 64%
    09:00 +11°C° 0 mm 1 m/S 589 mmHg 57%
    10:00 +14°C° 0 mm 1 m/S 590 mmHg 50%
    11:00 +15°C° 0 mm 1 m/S 590 mmHg 47%
    12:00 +16°C° 0 mm 2 m/S 590 mmHg 45%
    13:00 +16°C° 0 mm 2 m/S 590 mmHg 43%
    14:00 +16°C° 0 mm 2 m/S 590 mmHg 45%
    15:00 +16°C° 0 mm 2 m/S 590 mmHg 47%
    16:00 +16°C° 0 mm 2 m/S 589 mmHg 49%
    17:00 +14°C° 0 mm 2 m/S 588 mmHg 59%
    18:00 +12°C° 0 mm 2 m/S 587 mmHg 69%
    19:00 +10°C° 0 mm 1 m/S 586 mmHg 80%
    20:00 +9°C° 0 mm 1 m/S 586 mmHg 83%
    21:00 +8°C° 0 mm 1 m/S 586 mmHg 87%
    22:00 +6°C° 0 mm 1 m/S 585 mmHg 91%
    23:00 +6°C° 0 mm 1 m/S 585 mmHg 91%

    übermorgen, 23 August, Mittwoch

    Zeit Temperatur Niederschläge Wind Luftdruck Luftfeuchtigkeit
    00:00 +6°C° 0 mm 1 m/S 585 mmHg 90%
    01:00 +5°C° 0 mm 1 m/S 585 mmHg 90%
    02:00 +5°C° 0 mm 1 m/S 585 mmHg 88%
    03:00 +5°C° 0 mm 1 m/S 584 mmHg 86%
    04:00 +5°C° 0 mm 1 m/S 584 mmHg 84%
    05:00 +6°C° 0 mm 1 m/S 585 mmHg 79%
    06:00 +8°C° 0 mm 1 m/S 586 mmHg 75%
    07:00 +9°C° 0 mm 1 m/S 587 mmHg 70%
    08:00 +12°C° 0 mm 1 m/S 588 mmHg 61%
    09:00 +14°C° 0 mm 1 m/S 589 mmHg 52%
    10:00 +16°C° 0 mm 1 m/S 590 mmHg 42%
    11:00 +18°C° 0,1 mm 1 m/S 590 mmHg 40%
    12:00 +18°C° 0,1 mm 2 m/S 590 mmHg 38%
    13:00 +19°C° 0,1 mm 2 m/S 591 mmHg 36%
    14:00 +18°C° 0,1 mm 2 m/S 590 mmHg 39%
    15:00 +18°C° 0,1 mm 2 m/S 590 mmHg 41%
    16:00 +18°C° 0,1 mm 2 m/S 590 mmHg 43%
    17:00 +15°C° 0,2 mm 2 m/S 589 mmHg 54%
    18:00 +13°C° 0,2 mm 2 m/S 588 mmHg 64%
    19:00 +11°C° 0,2 mm 1 m/S 587 mmHg 74%
    20:00 +10°C° 0,1 mm 1 m/S 587 mmHg 77%
    21:00 +9°C° 0,1 mm 1 m/S 586 mmHg 80%
    22:00 +7°C° 0,1 mm 1 m/S 586 mmHg 83%
    23:00 +7°C° 0 mm 1 m/S 586 mmHg 82%

    24 August, Donnerstag

    Zeit Temperatur Niederschläge Wind Luftdruck Luftfeuchtigkeit
    00:00 +7°C° 0 mm 1 m/S 586 mmHg 81%
    01:00 +7°C° 0 mm 1 m/S 586 mmHg 80%
    02:00 +7°C° 0 mm 1 m/S 586 mmHg 79%
    03:00 +6°C° 0 mm 1 m/S 585 mmHg 77%
    04:00 +6°C° 0 mm 1 m/S 585 mmHg 75%
    05:00 +8°C° 0 mm 1 m/S 586 mmHg 72%
    06:00 +9°C° 0 mm 1 m/S 587 mmHg 68%
    07:00 +11°C° 0 mm 1 m/S 588 mmHg 64%
    08:00 +13°C° 0 mm 1 m/S 589 mmHg 56%
    09:00 +15°C° 0 mm 1 m/S 590 mmHg 49%
    10:00 +18°C° 0 mm 1 m/S 591 mmHg 41%
    11:00 +19°C° 0 mm 1 m/S 591 mmHg 41%
    12:00 +19°C° 0 mm 1 m/S 591 mmHg 41%
    13:00 +19°C° 0 mm 1 m/S 591 mmHg 41%
    14:00 +19°C° 0,3 mm 1 m/S 591 mmHg 45%
    15:00 +18°C° 0,3 mm 1 m/S 590 mmHg 49%
    16:00 +18°C° 0,3 mm 1 m/S 590 mmHg 53%
    17:00 +15°C° 0,4 mm 1 m/S 589 mmHg 62%
    18:00 +13°C° 0,4 mm 1 m/S 588 mmHg 70%
    19:00 +11°C° 0,4 mm 1 m/S 588 mmHg 79%
    20:00 +10°C° 0,3 mm 1 m/S 588 mmHg 81%
    21:00 +10°C° 0,3 mm 1 m/S 587 mmHg 84%
    22:00 +9°C° 0,3 mm 1 m/S 587 mmHg 86%
    23:00 +8°C° 0 mm 1 m/S 587 mmHg 87%

    25 August, Freitag

    Zeit Temperatur Niederschläge Wind Luftdruck Luftfeuchtigkeit
    00:00 +8°C° 0 mm 1 m/S 587 mmHg 87%
    01:00 +8°C° 0 mm 1 m/S 587 mmHg 88%
    02:00 +7°C° 0 mm 1 m/S 586 mmHg 87%
    03:00 +7°C° 0 mm 1 m/S 586 mmHg 87%
    04:00 +7°C° 0 mm 1 m/S 586 mmHg 86%
    05:00 +8°C° 0 mm 1 m/S 586 mmHg 83%
    06:00 +9°C° 0 mm 1 m/S 587 mmHg 79%
    07:00 +10°C° 0 mm 1 m/S 588 mmHg 76%
    08:00 +12°C° 0 mm 1 m/S 589 mmHg 67%
    09:00 +15°C° 0 mm 1 m/S 590 mmHg 58%
    10:00 +17°C° 0 mm 2 m/S 591 mmHg 50%
    11:00 +18°C° 0 mm 2 m/S 591 mmHg 48%
    12:00 +18°C° 0 mm 2 m/S 591 mmHg 46%
    13:00 +19°C° 0 mm 2 m/S 591 mmHg 45%
    14:00 +19°C° 0,3 mm 2 m/S 591 mmHg 48%
    15:00 +18°C° 0,3 mm 2 m/S 590 mmHg 50%
    16:00 +18°C° 0,3 mm 2 m/S 590 mmHg 53%
    17:00 +16°C° 0,7 mm 2 m/S 589 mmHg 64%
    18:00 +14°C° 0,7 mm 1 m/S 588 mmHg 75%
    19:00 +12°C° 0,7 mm 1 m/S 588 mmHg 86%
    20:00 +11°C° 0,5 mm 1 m/S 588 mmHg 88%
    21:00 +10°C° 0,5 mm 1 m/S 588 mmHg 89%
    22:00 +10°C° 0,5 mm 1 m/S 588 mmHg 91%
    23:00 +9°C° 0,1 mm 1 m/S 587 mmHg 90%

    26 August, Samstag

    Zeit Temperatur Niederschläge Wind Luftdruck Luftfeuchtigkeit
    00:00 +9°C° 0,1 mm 1 m/S 587 mmHg 90%
    01:00 +9°C° 0,1 mm 1 m/S 587 mmHg 89%
    02:00 +9°C° 0,1 mm 1 m/S 587 mmHg 88%
    03:00 +8°C° 0,1 mm 1 m/S 586 mmHg 87%
    04:00 +8°C° 0,1 mm 1 m/S 586 mmHg 86%
    05:00 +9°C° 0 mm 1 m/S 587 mmHg 83%
    06:00 +9°C° 0 mm 2 m/S 587 mmHg 81%
    07:00 +10°C° 0 mm 2 m/S 588 mmHg 78%
    08:00 +13°C° 0 mm 2 m/S 589 mmHg 68%
    09:00 +16°C° 0 mm 1 m/S 590 mmHg 58%
    10:00 +19°C° 0 mm 1 m/S 591 mmHg 48%
    11:00 +19°C° 0,1 mm 2 m/S 591 mmHg 46%
    12:00 +19°C° 0,1 mm 2 m/S 591 mmHg 44%
    13:00 +20°C° 0,1 mm 2 m/S 591 mmHg 42%
    14:00 +20°C° 0,3 mm 2 m/S 591 mmHg 44%
    15:00 +20°C° 0,3 mm 2 m/S 590 mmHg 46%
    16:00 +19°C° 0,3 mm 2 m/S 590 mmHg 48%
    17:00 +17°C° 0,3 mm 2 m/S 589 mmHg 58%
    18:00 +15°C° 0,3 mm 2 m/S 588 mmHg 68%
    19:00 +12°C° 0,3 mm 1 m/S 587 mmHg 79%
    20:00 +11°C° 0,1 mm 1 m/S 587 mmHg 82%
    21:00 +10°C° 0,1 mm 2 m/S 587 mmHg 85%
    22:00 +9°C° 0,1 mm 2 m/S 587 mmHg 88%
    23:00 +8°C° 0 mm 2 m/S 587 mmHg 86%
    Mehr zeigen